424  
ASUS41 KOKX 160705  
RWROKX  
REGIONAL WEATHER ROUNDUP  
NATIONAL WEATHER SERVICE NEW YORK NY  
300 AM EDT TUE SEP 16 2014  
 
NOTE: "FAIR" INDICATES FEW OR NO CLOUDS BELOW 12,000 FEET WITH NO  
SIGNIFICANT WEATHER AND/OR S TO VISIBILITY
.  
 
NYZ071-072-176-178-NJZ106-104-160800-  
NEW YORK CITY METRO AREA  
 
 
CITY SKY/WX TMP DP RH WIND PRES REMARKS
 
CENTRAL PARK CLOUDY 63 52 67 VRB5 30.07F  
LAGUARDIA APRT CLOUDY 63 54 72 S5 30.04F  
KENNEDY INTL CLOUDY 64 54 69 SW10 30.06F  
NEWARK/LIBERTY CLOUDY 60 53 77 CALM 30.05F  
BRNX BOT. GARD N/A 61 52 72 SE1 30.07F  
TETERBORO CLOUDY 60 51 72 CALM 30.04F  

 
 
NYZ177-179-078>081-160800-  
LONG ISLAND NEW YORK  
 
CITY SKY/WX TMP DP RH WIND PRES REMARKS
 
FARMINGDALE CLOUDY 59 52 77 CALM 30.05F  
ISLIP CLOUDY 58 51 78 CALM 30.04F  
SHIRLEY CLOUDY 52 49 89 CALM 30.06F  
WESTHAMPTON MOCLDY 49 45 86 CALM 30.08F  
MONTAUK POINT N/A 54 51 90 CALM 30.07F  

 
 
NYZ052-065-067-160800-  
HUDSON VALLEY  
 
CITY SKY/WX TMP DP RH WIND PRES REMARKS
 
WHITE PLAINS CLOUDY 56 53 90 CALM 30.05F  
NEWBURGH MOCLDY 55 52 88 CALM 30.05F  
MONTGOMERY CLOUDY 52 50 93 CALM 30.04F  
POUGHKEEPSIE CLOUDY 55 50 83 CALM 30.03F  
ALBANY LGT RAIN 55 48 77 E3 30.02F  

 
 
NJZ001-105-106-008-010-013-015-019>022-104-160800-  
NEW JERSEY  
 
CITY SKY/WX TMP DP RH WIND PRES REMARKS
 
NEWARK/LIBERTY CLOUDY 60 53 77 CALM 30.05F  
TETERBORO CLOUDY 60 51 72 CALM 30.04F  
CALDWELL CLOUDY 55 50 83 CALM 30.06F  
MORRISTOWN MOCLDY 54 50 87 CALM 30.05F  
SOMERVILLE MOCLDY 52 48 86 CALM 30.04F  
LINDEN FAIR 62 56 80 NW3 30.07S  
SUSSEX CLOUDY 52 49 89 CALM 30.05F  
ANDOVER N/A 51 50 96 CALM 30.05F  
TRENTON CLOUDY 58 53 84 SW3 30.05F  
MILLVILLE MOCLDY 57 55 93 CALM 30.05F  
ATLANTIC CITY MOCLDY 55 53 93 CALM 30.06F  
WRIGHTSTOWN CLOUDY 58 54 89 S6 30.03F  
TOMS RIVER MOCLDY 52 48 87 CALM 30.06F  
BELMAR MOCLDY 57 50 77 SW5 30.05F  

 
 
PAZ047>061-062-071-160800-  
EASTERN PENNSYLVANIA  
 
CITY SKY/WX TMP DP RH WIND PRES REMARKS
 
PHILADELPHIA PTCLDY 60 53 77 SE5 30.04F  
ALLENTOWN PTCLDY 51 48 89 N3 30.05S  
SCRANTON CLOUDY 54 49 83 CALM 30.03F  

 
 
CTZ002-004>006-009-010-012-RIZ004-006-007-MAZ004-011-015-160800-  
SOUTHERN NEW ENGLAND  
IN CT  
 
CITY SKY/WX TMP DP RH WIND PRES REMARKS
 
BRADLEY INTL CLOUDY 52 48 86 CALM 30.06F  
HARTFORD CLOUDY 54 50 86 MISG 30.06F  
DANBURY CLOUDY 51 49 92 CALM 30.07F  
WTRBRY/OXFORD CLOUDY 54 46 76 CALM 30.07F  
BRIDGEPORT CLOUDY 65 51 60 S9 30.05F  
MERIDEN CLOUDY 52 48 86 CALM 30.06F  
NEW HAVEN CLOUDY 56 50 80 CALM 30.05F  
CHESTER FAIR 52 48 87 CALM 30.07F  
GROTON MOCLDY 52 51 97 N5 30.06F  
WILLIMANTIC MOCLDY 48 46 93 CALM 30.08F  
 
IN RI  
 
CITY SKY/WX TMP DP RH WIND PRES REMARKS
 
PROVIDENCE CLOUDY 52 48 86 CALM 30.08F  
BLOCK ISLAND MOCLDY 55 46 71 SW5 30.06F  
WESTERLY MOCLDY 51 48 89 CALM 30.07F  
 
IN MA  
 
CITY SKY/WX TMP DP RH WIND PRES REMARKS
 
BOSTON MOCLDY 57 50 77 S5 30.08F  
WORCESTER MOCLDY 50 46 86 SW5 30.07F  
WESTFIELD CLOUDY 52 48 86 CALM 30.06F  
PROVINCETOWN PTCLDY 54 46 76 S3 30.09S  
NANTUCKET CLOUDY 57 51 80 E5 30.09S  

 
 
ANZ330-335-338-340-345-350-353-355-160800-  
COASTAL MARINE OBSERVATIONS  
 
 
STATION/POSITION TIME SKY/WX TEMP WIND PRES VSBY WAVE
 
AIR SEA DIR/SP/G HT/PER  
(UTC) (F) (DEG/KT/KT) (MB) (MI) (FT/S)  
NY HARB ENTRANCE NOT AVBL  
4S FIRE IS NOT AVBL  
23SW MTP 0700 N/A 2/12  
HUDSON CANYON 0700 66 73 280/ 6/ 8 1017.4 2/ 7  
EXECUTION ROCKS 0700 65 71 200/ 8/ 10 N/A  
WESTERN LI SOUND 0700 63 180/ 6/ 8 N/A 0  
CENTRAL LI SOUND 0600 65 71 220/ 10/ 12 N/A 1  
EASTERN LI SOUND 0600 62 68 30/ 4/ 6 N/A  
ROBBINS REEF 0600 63 N/A  

 
 
>>>>>>>>>>>>>>>>>>>>>>>>>>>> KEY <<<<<<<<<<<<<<<<<<<<<<<<<<<  
> <  
> SKY/WX - SKY CONDITION/PRESENT WEATHER <  
> TMP - TEMPERATURE IN FAHRENHEIT <  
> DP - DEWPOINT IN FAHRENHEIT <  
> RH - RELATIVE HUMIDITY IN PERCENT <  
> WIND - DIRECTION AND SPEED IN MPH <  
> PRES - MEAN SEA LEVEL PRESSURE IN INCHES OF HG <  
> WCI - WIND CHILL INDEX <  
> VSB - VISIBILITY IN MILES <  
> HX - HEAT INDEX <  
> TC - TEMPERATURE IN CELSIUS <  
> VRB - VARIABLE WIND DIRECTION <  
> <  
>>>>>>>>>>>>>>>>>>>>>>>>>>>> KEY <<<<<<<<<<<<<<<<<<<<<<<<<<<  
 
CLICK HERE TO GO TO PREVIOUS BULLETINS.

The Nexlab NY Page
The Nexlab NJ Page
The Nexlab CT Page Main Text Page